Weather in Nimen'ga

Russia / Arkhangel'skaya Oblast'     63°41′34″N   37°37′03″E
temp.,
°C
wind,
m/s
gust,
m/s
humid.,
%
clouds,
%
prec.,
mm/h
press.,
hPa
HPBL,
m
25 may, wed
wed2500:00+1n2397100 0.0 1016159
03:00+1nnw2499100 0.2 1017250
06:00+1nnw24100100 0.6 1017182
09:00+2nnw3499100 1.1 1017199
12:00+2n3597100 0.2 1016350
15:00+3n3594100 0.3 1016440
18:00+3nnw3490100 0.0 1015356
21:00+3nnw359133 0.0 1014155
26 may, thu
thu2600:00+1n35956 0.0 101388
03:00+1nnw259871 0.0 1012101
06:00+2n4696100 0.1 1010340
09:00+3nnw4691100 0.1 1008421
12:00+5nw3582100 0.0 1007513
15:00+7nw457295 0.0 1004470
18:00+6wnw3575100 0.0 1002300
21:00+5w2285100 0.0 99958
27 may, fri
fri2700:00+5w2690100 0.6 997140
03:00+5sw3793100 1.5 995164
06:00+6sw3983100 0.2 994317
09:00+10sw4761100 0.3 993892
12:00+14ssw464484 0.0 9931697
15:00+14ssw2644100 0.0 9931986
18:00+9s51284100 0.6 995525
21:00+9sse41078100 0.6 996573
28 may, sat
sat2800:00+8ese31191100 0.4 996475
03:00+8ese4109587 0.5 996338
06:00+8ese489354 0.1 996337
09:00+10ese4683100 0.1 997554
12:00+9se3891100 0.4 998335
15:00+12ne1368100 0.6 997760
18:00+8n2490100 0.6 997111
21:00+8n2399100 1.8 99786
29 may, sun
sun2900:00+7nw1299100 2.2 996108
03:00+7nw01100100 3.4 99666
06:00+8e0199100 0.5 99670
09:00+8n0199100 0.6 99779
12:00+8w2398100 0.6 999177
15:00+9wsw259499 0.7 1001318
18:00+10wsw358686 0.0 1003529
21:00+9wsw2692100 0.1 1004298